TimeCAT,TemperatureF,Dew PointF,Humidity,Sea Level PressureIn,VisibilityMPH,Wind Direction,Wind SpeedMPH,Gust SpeedMPH,PrecipitationIn,Events,Conditions,WindDirDegrees,DateUTC
12:00 AM,69.8,46.4,43,30.15,-9999.0,ENE,11.5,-,N/A,,Clear,70,2012-10-04 22:00:00
1:00 AM,68.0,46.4,46,30.12,-9999.0,East,9.2,-,N/A,,Clear,80,2012-10-04 23:00:00
2:00 AM,64,46,41,,19,East,8.1,,,,,80,2012-10-05 00:00:00
2:00 AM,64.4,46.4,52,30.12,-9999.0,East,8.1,-,N/A,,Clear,80,2012-10-05 00:00:00
3:00 AM,62.6,46.4,55,30.12,-9999.0,East,6.9,-,N/A,,Clear,80,2012-10-05 01:00:00
5:00 AM,64.4,46.4,52,30.12,-9999.0,ENE,10.4,-,N/A,,Clear,60,2012-10-05 03:00:00
6:00 AM,66.2,46.4,49,30.12,-9999.0,ENE,10.4,-,N/A,,Clear,70,2012-10-05 04:00:00
7:00 AM,69.8,48.2,46,30.15,-9999.0,East,10.4,-,N/A,,Clear,80,2012-10-05 05:00:00
8:00 AM,74,50,31,,19,East,16.1,,,,,80,2012-10-05 06:00:00
8:00 AM,73.4,50.0,44,30.18,-9999.0,East,16.1,-,N/A,,Clear,80,2012-10-05 06:00:00
9:00 AM,78.8,50.0,36,30.18,-9999.0,East,16.1,-,N/A,,Clear,80,2012-10-05 07:00:00
10:00 AM,80.6,50.0,34,30.18,-9999.0,ENE,15.0,-,N/A,,Clear,60,2012-10-05 08:00:00
11:00 AM,82.4,48.2,30,30.18,-9999.0,ENE,8.1,-,N/A,,Clear,60,2012-10-05 09:00:00
12:00 PM,86.0,44.6,23,30.15,-9999.0,ESE,5.8,-,N/A,,Clear,120,2012-10-05 10:00:00
1:00 PM,86.0,44.6,23,30.12,-9999.0,ESE,8.1,-,N/A,,Clear,110,2012-10-05 11:00:00
2:00 PM,87,45,14,,12,East,3.5,,,,Haze,100,2012-10-05 12:00:00
2:00 PM,87.8,44.6,22,30.09,-9999.0,Variable,4.6,-,N/A,,Clear,0,2012-10-05 12:00:00
3:00 PM,87.8,42.8,21,30.06,-9999.0,Variable,3.5,-,N/A,,Clear,0,2012-10-05 13:00:00
4:00 PM,87.8,39.2,18,30.06,-9999.0,Variable,5.8,-,N/A,,Clear,0,2012-10-05 14:00:00
5:00 PM,84.2,39.2,20,30.06,-9999.0,SE,6.9,-,N/A,,Clear,130,2012-10-05 15:00:00
6:00 PM,82.4,37.4,20,30.09,-9999.0,SE,8.1,-,N/A,,Clear,140,2012-10-05 16:00:00
7:00 PM,77.0,37.4,24,30.12,-9999.0,East,6.9,-,N/A,,Clear,100,2012-10-05 17:00:00
8:00 PM,76,46,23,,12,East,8.1,,,,Haze,90,2012-10-05 18:00:00
8:00 PM,77.0,46.4,34,30.15,-9999.0,East,8.1,-,N/A,,Clear,90,2012-10-05 18:00:00
9:00 PM,75.2,44.6,34,30.15,-9999.0,East,9.2,-,N/A,,Clear,100,2012-10-05 19:00:00
10:00 PM,71.6,44.6,38,30.18,-9999.0,East,10.4,-,N/A,,Clear,90,2012-10-05 20:00:00
11:00 PM,69.8,46.4,43,30.15,-9999.0,East,10.4,-,N/A,,Clear,100,2012-10-05 21:00:00